| time (UTC) | temp F | wind direction | speed knots | gust knots | rain 1hr in | rain 24hr in | rain mn in | humidity % | barometer mb |
| 20260505041422 | 67 | 95 | 1.7 | 2.6 | 0.00 | 0.00 | 0.00 | 59 | 1007.0 |
| 20260505040919 | 67 | 210 | 2.6 | 3.5 | 0.00 | 0.00 | 0.00 | 59 | 1007.3 |
| 20260505040416 | 66 | 316 | 0.9 | 0.9 | 0.00 | 0.00 | 0.00 | 61 | 1007.0 |
| 20260505035913 | 67 | 322 | 0.0 | 0.9 | 0.00 | 0.00 | 0.00 | 60 | 1007.1 |
| 20260505035409 | 67 | 192 | 1.7 | 1.7 | 0.00 | 0.00 | 0.00 | 60 | 1007.1 |
| 20260505034906 | 67 | 1 | 0.9 | 1.7 | 0.00 | 0.00 | 0.00 | 60 | 1007.0 |
| 20260505034403 | 67 | 266 | 1.7 | 1.7 | 0.00 | 0.00 | 0.00 | 60 | 1007.1 |
| 20260505033900 | 67 | 49 | 0.9 | 0.9 | 0.00 | 0.00 | 0.00 | 60 | 1007.0 |
| 20260505033356 | 68 | 7 | 0.9 | 1.7 | 0.00 | 0.00 | 0.00 | 59 | 1006.8 |
| 20260505032855 | 68 | 350 | 0.0 | 0.9 | 0.00 | 0.00 | 0.00 | 59 | 1006.9 |
| 20260505032351 | 67 | 52 | 0.9 | 0.9 | 0.00 | 0.00 | 0.00 | 59 | 1006.9 |
| 20260505031848 | 67 | 255 | 1.7 | 1.7 | 0.00 | 0.00 | 0.00 | 60 | 1006.9 |
| 20260505031344 | 67 | 289 | 0.9 | 0.9 | 0.00 | 0.00 | 0.00 | 59 | 1006.7 |
| 20260505030842 | 67 | 275 | 0.9 | 1.7 | 0.00 | 0.00 | 0.00 | 60 | 1006.8 |
| 20260505030338 | 68 | 154 | 2.6 | 2.6 | 0.00 | 0.00 | 0.00 | 59 | 1006.6 |
| 20260505025833 | 67 | 321 | 0.9 | 0.9 | 0.00 | 0.00 | 0.00 | 59 | 1006.7 |
| 20260505025331 | 67 | 328 | 0.9 | 0.9 | 0.00 | 0.00 | 0.00 | 59 | 1006.6 |
| 20260505024829 | 66 | 351 | 0.9 | 0.9 | 0.00 | 0.00 | 0.00 | 60 | 1006.5 |
| 20260505024327 | 66 | 349 | 0.0 | 0.0 | 0.00 | 0.00 | 0.00 | 62 | 1006.7 |
| 20260505023824 | 66 | 6 | 0.9 | 0.9 | 0.00 | 0.00 | 0.00 | 61 | 1006.5 |
| 20260505023321 | 66 | 344 | 0.0 | 0.9 | 0.00 | 0.00 | 0.00 | 60 | 1006.4 |
| 20260505022818 | 66 | 347 | 0.9 | 0.9 | 0.00 | 0.00 | 0.00 | 61 | 1006.5 |
| 20260505022315 | 66 | 358 | 0.9 | 0.9 | 0.00 | 0.00 | 0.00 | 60 | 1006.5 |
| 20260505021812 | 65 | 345 | 0.0 | 0.0 | 0.00 | 0.00 | 0.00 | 62 | 1006.4 |
| 20260505021309 | 66 | 348 | 0.0 | 0.0 | 0.00 | 0.00 | 0.00 | 61 | 1006.1 |
| 20260505020804 | 66 | 349 | 0.0 | 0.0 | 0.00 | 0.00 | 0.00 | 61 | 1006.2 |
| 20260505020300 | 66 | 346 | 0.0 | 0.0 | 0.00 | 0.00 | 0.00 | 61 | 1006.3 |
| 20260505015757 | 66 | 342 | 0.0 | 0.0 | 0.00 | 0.00 | 0.00 | 60 | 1006.0 |
| 20260505015254 | 66 | 359 | 0.0 | 0.0 | 0.00 | 0.00 | 0.00 | 60 | 1006.2 |
| 20260505014751 | 67 | 350 | 0.0 | 0.0 | 0.00 | 0.00 | 0.00 | 60 | 1005.9 |
| 20260505014249 | 67 | 346 | 0.0 | 0.0 | 0.00 | 0.00 | 0.00 | 59 | 1006.0 |
| 20260505013745 | 67 | 348 | 0.0 | 0.9 | 0.00 | 0.00 | 0.00 | 59 | 1006.2 |
| 20260505013242 | 67 | 354 | 0.0 | 0.0 | 0.00 | 0.00 | 0.00 | 59 | 1005.9 |
| 20260505012741 | 68 | 346 | 0.0 | 0.9 | 0.00 | 0.00 | 0.00 | 57 | 1006.0 |
| 20260505012238 | 68 | 0 | 0.0 | 0.0 | 0.00 | 0.00 | 0.00 | 57 | 1005.9 |
| 20260505011733 | 68 | 353 | 0.0 | 0.0 | 0.00 | 0.00 | 0.00 | 58 | 1005.9 |
| 20260505011231 | 69 | 347 | 0.0 | 0.0 | 0.00 | 0.00 | 0.00 | 56 | 1005.8 |
| 20260505010726 | 69 | 280 | 0.9 | 1.7 | 0.00 | 0.00 | 0.00 | 57 | 1005.7 |
| 20260505010223 | 69 | 351 | 0.0 | 0.9 | 0.00 | 0.00 | 0.00 | 56 | 1005.9 |
| 20260505005719 | 69 | 348 | 0.9 | 0.9 | 0.00 | 0.00 | 0.00 | 55 | 1005.7 |
| 20260505005216 | 70 | 297 | 0.9 | 0.9 | 0.00 | 0.00 | 0.00 | 55 | 1005.8 |
| 20260505004713 | 70 | 339 | 0.9 | 0.9 | 0.00 | 0.00 | 0.00 | 53 | 1005.8 |
| 20260505004210 | 70 | 339 | 0.0 | 0.0 | 0.00 | 0.00 | 0.00 | 53 | 1005.8 |
| 20260505003707 | 70 | 93 | 1.7 | 1.7 | 0.00 | 0.00 | 0.00 | 53 | 1005.7 |
| 20260505003205 | 71 | 353 | 0.9 | 0.9 | 0.00 | 0.00 | 0.00 | 53 | 1005.7 |
| 20260505002701 | 71 | 207 | 1.7 | 2.6 | 0.00 | 0.00 | 0.00 | 52 | 1005.8 |
| 20260505002159 | 71 | 342 | 0.9 | 0.9 | 0.00 | 0.00 | 0.00 | 51 | 1005.7 |
| 20260505001655 | 71 | 27 | 0.9 | 0.9 | 0.00 | 0.00 | 0.00 | 51 | 1005.9 |
| 20260505001153 | 72 | 156 | 1.7 | 2.6 | 0.00 | 0.00 | 0.00 | 49 | 1005.9 |
| 20260505000650 | 71 | 206 | 1.7 | 2.6 | 0.00 | 0.00 | 0.00 | 49 | 1006.1 |
| 20260505000148 | 71 | 323 | 0.9 | 0.9 | 0.00 | 0.00 | 0.00 | 50 | 1006.0 |
| 20260504235644 | 72 | 356 | 0.0 | 0.9 | 0.00 | 0.00 | 0.00 | 49 | 1006.2 |
| 20260504235140 | 72 | 315 | 0.0 | 0.9 | 0.00 | 0.00 | 0.00 | 50 | 1006.2 |
| 20260504234638 | 72 | 13 | 0.9 | 0.9 | 0.00 | 0.00 | 0.00 | 49 | 1006.2 |
| 20260504234135 | 73 | 263 | 1.7 | 1.7 | 0.00 | 0.00 | 0.00 | 47 | 1006.2 |
| 20260504233631 | 73 | 62 | 0.9 | 0.9 | 0.00 | 0.00 | 0.00 | 48 | 1006.4 |
| 20260504233127 | 74 | 312 | 0.0 | 0.9 | 0.00 | 0.00 | 0.00 | 47 | 1006.3 |
| 20260504232625 | 74 | 193 | 2.6 | 2.6 | 0.00 | 0.00 | 0.00 | 46 | 1006.3 |
| 20260504232121 | 75 | 173 | 1.7 | 2.6 | 0.00 | 0.00 | 0.00 | 47 | 1006.4 |
| 20260504231618 | 75 | 242 | 1.7 | 1.7 | 0.00 | 0.00 | 0.00 | 45 | 1006.3 |
| 20260504231114 | 75 | 309 | 1.7 | 2.6 | 0.00 | 0.00 | 0.00 | 46 | 1006.4 |
| 20260504230610 | 74 | 108 | 1.7 | 1.7 | 0.00 | 0.00 | 0.00 | 46 | 1006.3 |
| 20260504230109 | 74 | 38 | 1.7 | 1.7 | 0.00 | 0.00 | 0.00 | 46 | 1006.4 |
| 20260504225607 | 75 | 152 | 3.5 | 5.2 | 0.00 | 0.00 | 0.00 | 45 | 1006.4 |
| 20260504225103 | 75 | 270 | 2.6 | 2.6 | 0.00 | 0.00 | 0.00 | 46 | 1006.6 |
| 20260504224600 | 75 | 183 | 2.6 | 5.2 | 0.00 | 0.00 | 0.00 | 45 | 1006.7 |
| 20260504224057 | 74 | 178 | 6.1 | 9.6 | 0.00 | 0.00 | 0.00 | 46 | 1006.3 |
| 20260504223554 | 74 | 192 | 2.6 | 2.6 | 0.00 | 0.00 | 0.00 | 50 | 1006.5 |
| 20260504223050 | 75 | 232 | 2.6 | 2.6 | 0.00 | 0.00 | 0.00 | 50 | 1006.5 |
| 20260504222547 | 75 | 72 | 0.9 | 1.7 | 0.00 | 0.00 | 0.00 | 53 | 1006.3 |
| 20260504222044 | 74 | 342 | 0.9 | 0.9 | 0.00 | 0.00 | 0.00 | 52 | 1006.5 |
| 20260504221542 | 74 | 255 | 1.7 | 1.7 | 0.00 | 0.00 | 0.00 | 51 | 1006.5 |
| 20260504221038 | 74 | 294 | 0.9 | 0.9 | 0.00 | 0.00 | 0.00 | 52 | 1006.7 |
| 20260504220534 | 74 | 0 | 0.9 | 0.9 | 0.00 | 0.00 | 0.00 | 52 | 1006.9 |
| 20260504220032 | 74 | 273 | 1.7 | 1.7 | 0.00 | 0.00 | 0.00 | 50 | 1006.8 |
| 20260504215528 | 75 | 3 | 0.9 | 1.7 | 0.00 | 0.00 | 0.00 | 52 | 1007.0 |
| 20260504215026 | 75 | 307 | 0.9 | 1.7 | 0.00 | 0.00 | 0.00 | 50 | 1006.8 |
| 20260504214521 | 75 | 301 | 0.9 | 1.7 | 0.00 | 0.00 | 0.00 | 50 | 1006.9 |
| 20260504214018 | 75 | 245 | 1.7 | 1.7 | 0.00 | 0.00 | 0.00 | 49 | 1007.0 |
| 20260504213514 | 75 | 282 | 1.7 | 2.6 | 0.00 | 0.00 | 0.00 | 50 | 1007.1 |
| 20260504213012 | 75 | 325 | 0.0 | 0.0 | 0.00 | 0.00 | 0.00 | 50 | 1007.0 |
| 20260504212507 | 75 | 327 | 0.0 | 0.0 | 0.00 | 0.00 | 0.00 | 51 | 1007.1 |
| 20260504212005 | 75 | 295 | 0.9 | 1.7 | 0.00 | 0.00 | 0.00 | 50 | 1007.1 |
| 20260504211501 | 74 | 226 | 3.5 | 5.2 | 0.00 | 0.00 | 0.00 | 49 | 1007.3 |
| 20260504210959 | 75 | 113 | 1.7 | 2.6 | 0.00 | 0.00 | 0.00 | 51 | 1007.5 |
| 20260504210456 | 74 | 266 | 1.7 | 1.7 | 0.00 | 0.00 | 0.00 | 51 | 1007.4 |
| 20260504205952 | 75 | 148 | 1.7 | 2.6 | 0.00 | 0.00 | 0.00 | 51 | 1007.4 |
| 20260504205450 | 76 | 168 | 1.7 | 2.6 | 0.00 | 0.00 | 0.00 | 48 | 1007.5 |
| 20260504204948 | 77 | 306 | 0.0 | 0.9 | 0.00 | 0.00 | 0.00 | 47 | 1007.6 |
| 20260504204446 | 76 | 325 | 0.9 | 0.9 | 0.00 | 0.00 | 0.00 | 51 | 1007.9 |
| 20260504203945 | 76 | 186 | 3.5 | 3.5 | 0.00 | 0.00 | 0.00 | 49 | 1007.7 |
| 20260504203442 | 75 | 264 | 0.9 | 1.7 | 0.00 | 0.00 | 0.00 | 49 | 1007.8 |
| 20260504202938 | 76 | 331 | 0.0 | 0.0 | 0.00 | 0.00 | 0.00 | 49 | 1007.8 |
| 20260504202435 | 76 | 320 | 0.9 | 0.9 | 0.00 | 0.00 | 0.00 | 47 | 1007.9 |
| 20260504201932 | 75 | 291 | 0.9 | 0.9 | 0.00 | 0.00 | 0.00 | 51 | 1008.0 |
| 20260504201429 | 74 | 291 | 0.9 | 1.7 | 0.00 | 0.00 | 0.00 | 50 | 1008.1 |
| 20260504200926 | 75 | 274 | 2.6 | 3.5 | 0.00 | 0.00 | 0.00 | 49 | 1008.1 |
| 20260504200423 | 75 | 214 | 1.7 | 2.6 | 0.00 | 0.00 | 0.00 | 50 | 1008.2 |
| 20260504195920 | 74 | 273 | 1.7 | 1.7 | 0.00 | 0.00 | 0.00 | 51 | 1008.2 |
| 20260504195416 | 75 | 205 | 3.5 | 5.2 | 0.00 | 0.00 | 0.00 | 51 | 1008.5 |
| 20260504194912 | 74 | 308 | 1.7 | 1.7 | 0.00 | 0.00 | 0.00 | 51 | 1008.6 |
| 20260504194408 | 75 | 281 | 2.6 | 2.6 | 0.00 | 0.00 | 0.00 | 52 | 1008.8 |
| 20260504193904 | 74 | 198 | 1.7 | 2.6 | 0.00 | 0.00 | 0.00 | 52 | 1008.8 |
| 20260504193401 | 73 | 344 | 0.9 | 1.7 | 0.00 | 0.00 | 0.00 | 55 | 1009.0 |
| 20260504192900 | 73 | 334 | 0.9 | 0.9 | 0.00 | 0.00 | 0.00 | 56 | 1008.7 |
| 20260504192357 | 73 | 298 | 0.9 | 0.9 | 0.00 | 0.00 | 0.00 | 55 | 1008.8 |
| 20260504191856 | 72 | 279 | 1.7 | 2.6 | 0.00 | 0.00 | 0.00 | 55 | 1009.1 |
| 20260504191354 | 71 | 126 | 3.5 | 6.1 | 0.00 | 0.00 | 0.00 | 57 | 1009.1 |
| 20260504190849 | 70 | 196 | 1.7 | 2.6 | 0.00 | 0.00 | 0.00 | 57 | 1009.2 |
| 20260504190345 | 69 | 275 | 0.9 | 1.7 | 0.00 | 0.00 | 0.00 | 58 | 1009.3 |
| 20260504185842 | 69 | 300 | 0.9 | 0.9 | 0.00 | 0.00 | 0.00 | 60 | 1009.4 |
| 20260504185339 | 69 | 53 | 1.7 | 1.7 | 0.00 | 0.00 | 0.00 | 60 | 1009.2 |
| 20260504184834 | 69 | 319 | 0.9 | 0.9 | 0.00 | 0.00 | 0.00 | 59 | 1009.4 |
| 20260504184331 | 69 | 309 | 1.7 | 1.7 | 0.00 | 0.00 | 0.00 | 58 | 1009.3 |
| 20260504183826 | 69 | 310 | 0.0 | 0.9 | 0.00 | 0.00 | 0.00 | 59 | 1009.5 |
| 20260504183324 | 69 | 57 | 1.7 | 1.7 | 0.00 | 0.00 | 0.00 | 57 | 1009.1 |
| 20260504182822 | 69 | 149 | 2.6 | 2.6 | 0.00 | 0.00 | 0.00 | 56 | 1009.1 |
| 20260504182319 | 69 | 276 | 1.7 | 2.6 | 0.00 | 0.00 | 0.00 | 57 | 1009.2 |
| 20260504181816 | 70 | 119 | 1.7 | 2.6 | 0.00 | 0.00 | 0.00 | 56 | 1009.0 |
| 20260504181313 | 70 | 64 | 1.7 | 1.7 | 0.00 | 0.00 | 0.00 | 56 | 1008.8 |
| 20260504180812 | 70 | 5 | 1.7 | 1.7 | 0.00 | 0.00 | 0.00 | 56 | 1008.9 |
| 20260504180310 | 70 | 190 | 2.6 | 5.2 | 0.00 | 0.00 | 0.00 | 57 | 1008.8 |
| 20260504175808 | 70 | 153 | 6.1 | 8.7 | 0.00 | 0.00 | 0.00 | 54 | 1008.7 |
| 20260504175304 | 70 | 177 | 1.7 | 2.6 | 0.00 | 0.00 | 0.00 | 57 | 1008.8 |
| 20260504174803 | 70 | 136 | 4.3 | 7.0 | 0.00 | 0.00 | 0.00 | 54 | 1008.7 |
| 20260504174300 | 70 | 246 | 1.7 | 1.7 | 0.00 | 0.00 | 0.00 | 57 | 1009.0 |
| 20260504173756 | 69 | 332 | 0.9 | 1.7 | 0.00 | 0.00 | 0.00 | 57 | 1009.0 |
| 20260504173253 | 68 | 263 | 2.6 | 3.5 | 0.00 | 0.00 | 0.00 | 57 | 1009.0 |
| 20260504172750 | 69 | 24 | 1.7 | 3.5 | 0.00 | 0.00 | 0.00 | 58 | 1008.8 |
| 20260504172247 | 69 | 189 | 1.7 | 1.7 | 0.00 | 0.00 | 0.00 | 58 | 1008.4 |
| 20260504171743 | 69 | 183 | 1.7 | 1.7 | 0.00 | 0.00 | 0.00 | 58 | 1008.3 |
| 20260504171240 | 69 | 203 | 1.7 | 2.6 | 0.00 | 0.00 | 0.00 | 58 | 1008.7 |
| 20260504170737 | 68 | 38 | 1.7 | 1.7 | 0.00 | 0.00 | 0.00 | 58 | 1008.7 |
| 20260504170234 | 68 | 277 | 1.7 | 1.7 | 0.00 | 0.00 | 0.00 | 60 | 1008.9 |
| 20260504160153 | 68 | 265 | 0.9 | 1.7 | 0.00 | 0.00 | 0.00 | 57 | 1009.5 |
| 20260504151120 | 63 | 346 | 0.9 | 0.9 | 0.00 | 0.00 | 0.00 | 62 | 1009.6 |
| 20260504150618 | 62 | 345 | 0.0 | 0.0 | 0.00 | 0.00 | 0.00 | 64 | 1009.6 |
| 20260504150115 | 62 | 257 | 1.7 | 1.7 | 0.00 | 0.00 | 0.00 | 62 | 1009.6 |
| 20260504141043 | 60 | 122 | 1.7 | 2.6 | 0.00 | 0.00 | 0.00 | 63 | 1009.7 |
| 20260504140540 | 60 | 175 | 2.6 | 3.5 | 0.00 | 0.00 | 0.00 | 63 | 1009.8 |
| 20260504130504 | 56 | 345 | 0.9 | 0.9 | 0.00 | 0.00 | 0.00 | 67 | 1010.4 |
| 20260504110351 | 51 | 355 | 0.0 | 0.9 | 0.00 | 0.00 | 0.00 | 66 | 1010.1 |
| 20260504100309 | 49 | 346 | 0.0 | 0.0 | 0.00 | 0.00 | 0.00 | 70 | 1010.4 |
| 20260504081708 | 50 | 354 | 0.0 | 0.0 | 0.00 | 0.00 | 0.00 | 65 | 1011.0 |
| 20260504081204 | 50 | 341 | 0.0 | 0.0 | 0.00 | 0.00 | 0.00 | 66 | 1011.3 |
| 20260504080700 | 49 | 353 | 0.0 | 0.0 | 0.00 | 0.00 | 0.00 | 66 | 1011.2 |
| 20260504080157 | 49 | 359 | 0.9 | 0.9 | 0.00 | 0.00 | 0.00 | 66 | 1011.2 |
| 20260504070125 | 50 | 28 | 0.9 | 1.7 | 0.00 | 0.00 | 0.00 | 63 | 1011.6 |
| 20260504050514 | 49 | 350 | 0.0 | 0.0 | 0.00 | 0.00 | 0.00 | 66 | 1012.6 |
| 20260504050011 | 49 | 351 | 0.0 | 0.0 | 0.00 | 0.00 | 0.00 | 66 | 1012.7 |
| 20260504045507 | 49 | 347 | 0.0 | 0.0 | 0.00 | 0.00 | 0.00 | 66 | 1012.7 |
| 20260504045003 | 49 | 350 | 0.0 | 0.0 | 0.00 | 0.00 | 0.00 | 67 | 1012.7 |
| 20260504044500 | 49 | 352 | 0.0 | 0.0 | 0.00 | 0.00 | 0.00 | 66 | 1012.7 |
| 20260504043957 | 49 | 351 | 0.0 | 0.0 | 0.00 | 0.00 | 0.00 | 66 | 1012.7 |
| 20260504043454 | 49 | 351 | 0.0 | 0.0 | 0.00 | 0.00 | 0.00 | 66 | 1012.8 |
| 20260504042952 | 49 | 352 | 0.0 | 0.0 | 0.00 | 0.00 | 0.00 | 65 | 1012.7 |
| 20260504042448 | 49 | 351 | 0.0 | 0.0 | 0.00 | 0.00 | 0.00 | 65 | 1012.8 |
| 20260504041945 | 49 | 345 | 0.0 | 0.0 | 0.00 | 0.00 | 0.00 | 66 | 1013.0 |